Location: Ch�ze
(42.9000°N, 0.0333°W)
Time: 23:54:46
(UTC+00:00)

Cosmos 372 Rocket - Pass Details

Date: 24 January 2021
Orbit: 737 x 768 km, 74.1° (Epoch: 24 February)

Event Time Altitude Azimuth Distance (km) Brightness Sun altitude
Rises 19:31:07 0° 204° (SSW) 3,191 7.5 -27.1°
Reaches altitude 10° 19:33:28 10° 206° (SSW) 2,276 6.7 -27.5°
Enters shadow 19:38:37 73° 290° (WNW) 799 4.1 -28.4°
